Regional Weather Roundup
Issued by NWS Newport/Morehead, NC

Current Version | Previous Version | Graphics & Text | Print | Product List | Glossary Off
Versions: 1 2 3 4 5 6 7 8 9 10 11 12 13 14 15 16 17 18 19 20 21 22 23 24 25 26 27 28 29 30 31 32 33 34 35 36 37 38 39 40 41 42 43 44 45 46 47 48 49 50
000 ASUS42 KMHX 220525 RWRMHX WEATHER ROUNDUP FOR EASTERN NORTH CAROLINA NATIONAL WEATHER SERVICE NEWPORT/MOREHEAD CITY NC 1200 AM EST WED NOV 22 2017 NOTE: "FAIR" INDICATES FEW OR NO CLOUDS BELOW 12,000 FEET WITH NO SIGNIFICANT WEATHER AND/OR OBSTRUCTIONS TO VISIBILITY NCZ015>017-031-032-045>047-102-103-220600- NORTH COAST CITY SKY/WX TMP DP RH WIND PRES REMARKS EDENTON CLOUDY 54 51 88 CALM 30.03F ELIZABETH CITY CLOUDY 60 57 89 SE5 30.03F KITTY HAWK MOCLDY 60 59 96 CALM 30.03F MANTEO CLOUDY 59 57 94 SE3 30.04F $$ NCZ045>047-081-094-103-104-220600- CENTRAL COAST CITY SKY/WX TMP DP RH WIND PRES REMARKS FRISCO CLOUDY 66 63 90 SE9 30.02F $$ NCZ095-097-098-100-101-220600- SOUTHERN COAST CITY SKY/WX TMP DP RH WIND PRES REMARKS BEAUFORT CLOUDY 59 59 100 CALM 30.00F CEDAR ISLAND NOT AVBL JACKSONVILLE NOT AVBL PINEY ISLAND N/A N/A N/A N/A NE5 30.00 WILMINGTON RAIN 61 60 97 SE5 29.99F FOG $$ NCZ011>013-027>030-043-044-078>080-089-090>093-098-220600- COASTAL PLAIN CITY SKY/WX TMP DP RH WIND PRES REMARKS AHOSKIE CLOUDY 53 49 87 CALM 30.02F CLINTON CLOUDY 55 55 100 CALM 30.00F ELIZABETHTOWN NOT AVBL GOLDSBORO CLOUDY 55 51 86 NE5 29.99F GREENVILLE CLOUDY 54 52 94 CALM 30.03F HAVELOCK NOT AVBL KENANSVILLE CLOUDY 57 54 88 CALM 30.00F KINSTON CLOUDY 55 51 88 CALM 30.01F NEW BERN CLOUDY 55 54 96 CALM 30.02F RICHLANDS LGT RAIN 57 54 89 NE3 30.00F ROCKY MOUNT CLOUDY 53 52 96 CALM 30.02F WASHINGTON DRIZZLE 54 51 89 CALM 30.02F WHITEVILLE LGT RAIN 58 57 97 NW3 29.96F $$ AMZ130-135-150-152-154-156-158-170-250-252-270-ANZ085-086-088-633-658-670-220600- MARINE OBSERVATIONS STATION/POSITION TIME TEMP WIND PRES WAVE SWELL AIR SEA DIR/SP/G HT/PER HT/PER (UTC) (F) (DEG/KT/KT) (MB) (FT/S) (FT/S) CHESAPEAKE LIGHT NOT AVBL 64 E VA BEACH 0450 64 65 90/ 4/ 6 1018.6 2/ 9 2/ 9 DUCK 0500 62 60 150/ 12/ 13 1016.3 2 E DUCK 0500 61 N/A 2/13 OREGON INLET 0500 61 54 120/ 2/ 3 1016.8 13E OREGON INLT 0448 64 N/A 4/ 5 3/ 5 HATTERAS CG 0500 65 59 130/ 6/ 9 1016.1 DIAMOND BUOY 0510 73 75 140/ 19/ 25 1016.4 CAPE LOOKOUT 0500 90/ 6/ 6 1015.8 BEAUFORT LAB 0500 60 60 10/ 4/ 5 1015.6 30 SE NEW RVR IN 0508 69 67 80/ 4/ 8 1014.8 30 SE NEW RVR IN 0500 67 N/A 4/ 6 27 SE WRIGHTSVLE 0508 64 68 120/ 8/ 14 1014.6 5 SE WRIGHTSVLE 0508 66 64 270/ 2/ 6 1015.3 225 S CAPE HAT 0450 71 76 120/ 14/ 19 1015.5 8/ 8 7/ 8 41 SE CHARLESTON 0510 69 74 270/ 19/ 27 1014.2 $$

USA.gov is the U.S. government's official web portal to all federal, state and local government web resources and services.